Location: *
(50.2903°S, 172.5375°W)
Time: 08:05:46
(UTC+00:00)

CENTAUR R/B - Pass Details

Date: 17 November 2019
Orbit: 779 x 1409 km, 63.4° (Epoch: 01 December)

Event Time Altitude Azimuth Distance (km) Brightness Sun altitude
Exits shadow 14:24:23 - 290° (WNW) 3,467 4.8 -9.1°
Reaches altitude 10° 14:25:13 10° 288° (WNW) 3,191 4.6 -9.1°
Maximum altitude 14:32:32 48° 214° (SW) 1,411 3.4 -8.2°
Drops below altitude 10° 14:38:52 10° 140° (SE) 2,758 6.6 -7.5°
Sets 14:41:23 0° 134° (SE) 3,623 8.2 -7.2°
